MST,Max TemperatureF,Mean TemperatureF,Min TemperatureF,Max Dew PointF,MeanDew PointF,Min DewpointF,Max Humidity, Mean Humidity, Min Humidity, Max Sea Level PressureIn, Mean Sea Level PressureIn, Min Sea Level PressureIn, Max VisibilityMiles, Mean VisibilityMiles, Min VisibilityMiles, Max Wind SpeedMPH, Mean Wind SpeedMPH, Max Gust SpeedMPH,PrecipitationIn, CloudCover, Events, WindDirDegrees
2012-1-1,44,26,8,6,2,-6,67,40,13,30.83,30.74,30.63,10,10,10,9,2,10,0.00,0,,142
2012-1-2,51,32,13,13,8,3,68,44,20,30.84,30.69,30.57,10,10,10,9,2,9,0.00,0,,113
2012-1-3,45,29,13,16,13,9,80,56,31,30.63,30.56,30.43,10,10,10,8,2,9,0.00,0,,192
2012-1-4,47,30,12,16,12,8,84,55,25,30.81,30.67,30.58,10,10,7,8,3,9,0.00,0,,139
2012-1-5,49,31,12,13,11,9,80,52,23,30.60,30.40,30.22,10,10,10,10,2,12,0.00,0,,199
2012-1-6,49,32,15,15,13,11,74,49,23,30.29,30.18,30.07,10,10,10,12,1,12,0.00,0,,187
2012-1-7,33,25,17,30,25,14,100,79,58,30.23,30.00,29.93,10,5,0,13,4,16,0.13,7,Fog-Snow,279
2012-1-8,34,19,4,23,12,2,100,81,61,30.53,30.40,30.24,10,10,10,9,2,9,0.00,0,,133
2012-1-9,37,23,8,19,11,4,91,68,44,30.65,30.52,30.40,10,10,10,8,2,9,0.00,0,,114
2012-1-10,41,25,8,22,16,7,92,70,48,30.46,30.29,30.12,10,10,10,7,2,7,0.00,0,,155
2012-1-11,33,20,7,21,10,1,92,61,30,30.48,30.25,30.06,10,10,9,23,6,29,T,4,,250
2012-1-12,32,17,1,6,0,-5,79,53,27,30.62,30.47,30.33,10,10,10,9,2,10,0.00,0,,126
2012-1-13,32,16,0,5,1,-4,80,54,28,30.60,30.53,30.46,10,10,10,9,2,9,0.00,0,,129
2012-1-14,43,25,7,12,5,0,80,50,20,30.64,30.48,30.32,10,10,10,9,1,10,0.00,0,,161
2012-1-15,41,24,6,16,10,2,88,60,32,30.31,30.11,29.90,10,10,10,8,1,9,0.00,1,,147
2012-1-16,37,25,12,32,25,-4,100,68,36,30.21,29.78,29.65,10,5,1,31,10,39,0.02,8,Snow,237
2012-1-17,25,11,-4,2,-2,-8,79,57,35,30.51,30.41,30.25,10,10,10,12,3,12,0.00,0,,147
2012-1-18,37,23,8,19,10,2,76,59,41,30.38,30.26,30.14,10,10,10,10,2,12,0.00,5,,129
2012-1-19,46,35,24,28,22,18,81,61,40,30.14,30.01,29.86,10,10,10,8,1,9,0.00,8,,157
2012-1-20,52,39,25,28,24,21,85,59,32,30.07,29.94,29.81,10,10,10,23,4,28,T,4,,159
2012-1-21,38,31,24,32,29,20,100,77,54,29.99,29.64,29.47,10,5,0,9,3,13,0.28,7,Fog-Rain-Snow,126
2012-1-22,38,29,20,32,25,15,96,70,44,30.20,29.82,29.49,10,10,8,26,6,35,0.03,6,Rain-Snow,277
2012-1-23,37,28,19,24,19,16,91,69,47,30.19,30.04,29.91,10,10,10,7,2,8,0.00,6,,164
2012-1-24,39,30,20,30,24,16,92,70,48,30.44,30.12,29.93,10,7,1,18,5,23,0.02,6,Snow,221
2012-1-25,39,27,14,20,16,10,88,66,44,30.58,30.48,30.38,10,10,10,10,3,10,0.00,0,,147
2012-1-26,38,27,15,30,25,12,92,72,52,30.43,30.15,29.99,10,6,0,9,2,10,0.07,5,Fog-Snow,164
2012-1-27,39,27,15,31,23,6,100,66,32,30.52,30.16,29.98,10,7,0,17,7,22,T,5,Fog-Snow,265
2012-1-28,36,22,7,12,7,2,80,56,32,30.72,30.62,30.53,10,10,10,9,2,9,0.00,0,,151
2012-1-29,40,25,10,17,10,5,83,55,27,30.69,30.55,30.36,10,10,10,7,1,7,0.00,0,,181
2012-1-30,40,27,13,22,15,9,84,62,40,30.34,30.20,30.09,10,10,10,9,2,12,0.00,2,,127
2012-1-31,45,30,15,22,17,11,88,60,31,30.27,30.20,30.11,10,10,10,8,1,8,0.00,0,,154